Weather History for Omak, WA

Change the Weather History Date:

Friday, May 16, 2014

  Actual Average Record
Temperature  
Mean Temperature 68 °F 58 °F  
Max Temperature 82 °F 72 °F 94 °F (2006)
Min Temperature 53 °F 44 °F 27 °F (1974)
Degree Days  
Heating Degree Days 0 7  
Month to date heating degree days 121 152  
Since 1 July heating degree days 6324 6191  
Cooling Degree Days 3 1  
Month to date cooling degree days 5 6  
Year to date cooling degree days 5 7  
Growing Degree Days 18 (Base 50)    
Moisture  
Dew Point 48 °F    
Average Humidity 57    
Maximum Humidity 86    
Minimum Humidity 28    
Precipitation  
Precipitation 0.05 in 0.04 in 0.88 in (1994)
Month to date precipitation 0.31 0.64  
Year to date precipitation 4.47 5.85  
Sea Level Pressure  
Sea Level Pressure 29.90 in    
Wind  
Wind Speed 10 mph (NNW)    
Max Wind Speed 20 mph    
Max Gust Speed 24 mph    
Visibility 10 miles    
Events Rain , Thunderstorm    
T = Trace of Precipitation, MM = Missing Value Source: NWS Daily Summary

Daily Weather History Graph

Daily Weather History Graph

Search for Another Location

Airport:

Trip Planner

Search our weather history database for the weather conditions in past years. The results will help you decide how hot, cold, wet, or windy it might be!

Date:

Astronomy

May. 16, 2014 Rise Set
Actual Time 5:16 AM PDT 8:33 PM PDT
Civil Twilight 4:38 AM PDT 9:11 PM PDT
Nautical Twilight 3:49 AM PDT 10:01 PM PDT
Astronomical Twilight 2:45 AM PDT 11:05 PM PDT
Moon 10:44 PM PDT (5/16) 7:02 AM PDT (5/16)
Length of Visible Light 16h 32m
Length of Day
15h 17m
Waning Gibbous, 95% of the Moon is Illuminated
May 16
Waning Gibbous
May 21
Last Quarter
May 28
New
Jun 5
First Quarter
Jun 12
Full

Hourly Weather History & Observations

Time (PDT) Temp. Dew Point Humidity Pressure Visibility Wind Dir Wind Speed Gust Speed Precip Events Conditions
1:53 AM 63.0 °F 44.1 °F 50% 29.94 in 10.0 mi North 11.5 mph - N/A   Clear
2:53 AM 62.1 °F 44.1 °F 52% 29.94 in 10.0 mi NNW 11.5 mph - N/A   Clear
3:53 AM 61.0 °F 44.1 °F 54% 29.93 in 10.0 mi North 11.5 mph - N/A   Clear
4:53 AM 61.0 °F 44.1 °F 54% 29.94 in 10.0 mi North 9.2 mph - N/A   Mostly Cloudy
5:53 AM 62.1 °F 45.0 °F 53% 29.93 in 10.0 mi North 12.7 mph - 0.00 in   Mostly Cloudy
6:53 AM 63.0 °F 45.0 °F 52% 29.93 in 10.0 mi NNW 11.5 mph 19.6 mph N/A   Mostly Cloudy
7:53 AM 64.9 °F 44.1 °F 47% 29.93 in 10.0 mi NNW 10.4 mph - N/A   Mostly Cloudy
8:53 AM 66.9 °F 45.0 °F 45% 29.93 in 10.0 mi NNW 15.0 mph - N/A   Scattered Clouds
9:53 AM 73.0 °F 46.0 °F 38% 29.93 in 10.0 mi North 16.1 mph 20.7 mph N/A   Partly Cloudy
10:53 AM 71.1 °F 46.0 °F 41% 29.93 in 10.0 mi North 11.5 mph - N/A   Scattered Clouds
11:53 AM 77.0 °F 45.0 °F 32% 29.91 in 10.0 mi NNE 17.3 mph 24.2 mph N/A   Mostly Cloudy
1:53 PM 82.0 °F 46.0 °F 28% 29.86 in 10.0 mi North 9.2 mph - N/A   Clear
2:53 PM 80.1 °F 45.0 °F 29% 29.84 in 10.0 mi North - - N/A   Clear
3:53 PM 79.0 °F 46.0 °F 31% 29.83 in 10.0 mi NNW 5.8 mph - N/A   Clear
4:53 PM 73.0 °F 51.1 °F 46% 29.83 in 10.0 mi SW 8.1 mph - 0.00 in   Overcast
5:14 PM 71.1 °F 51.1 °F 49% 29.86 in 10.0 mi West 9.2 mph - 0.00 in Rain , Thunderstorm Light Rain
5:53 PM 64.9 °F 54.0 °F 68% 29.89 in 10.0 mi NE 6.9 mph - 0.01 in Rain Light Rain
6:53 PM 61.0 °F 55.9 °F 83% 29.89 in 10.0 mi WNW 5.8 mph - 0.04 in Rain Light Rain
8:53 PM 60.1 °F 54.0 °F 80% 29.87 in 10.0 mi NW 9.2 mph - N/A   Clear
9:53 PM 59.0 °F 54.0 °F 83% 29.88 in 10.0 mi North 10.4 mph - N/A   Clear
10:53 PM 55.9 °F 52.0 °F 87% 29.89 in 10.0 mi NW 5.8 mph - N/A   Clear
11:53 PM 57.9 °F 53.1 °F 84% 29.89 in 10.0 mi Variable 3.5 mph - N/A   Clear